Time,TemperatureF,DewpointF,PressureIn,WindDirection,WindDirectionDegrees,WindSpeedMPH,WindSpeedGustMPH,Humidity,HourlyPrecipIn,Conditions,Clouds,dailyrainin,SoftwareType,DateUTC
2013-05-11 00:01:00,58.7,49.3,30.15,WSW,248,1.3,2.2,71,0.00,,,0.00,WUHU216HW,2013-05-11 07:01:00,
2013-05-11 00:06:00,58.7,49.3,30.15,WSW,248,1.6,2.2,71,0.00,,,0.00,WUHU216HW,2013-05-11 07:06:00,
2013-05-11 00:11:00,58.5,49.5,30.15,WSW,248,2.2,2.7,72,0.00,,,0.00,WUHU216HW,2013-05-11 07:11:00,
2013-05-11 00:16:00,58.3,49.3,30.15,SW,225,2.7,4.7,72,0.00,,,0.00,WUHU216HW,2013-05-11 07:16:00,
2013-05-11 00:21:00,58.1,49.1,30.15,WSW,248,2.0,4.7,72,0.00,,,0.00,WUHU216HW,2013-05-11 07:21:00,
2013-05-11 00:26:00,58.0,49.0,30.15,WSW,248,1.8,4.0,72,0.00,,,0.00,WUHU216HW,2013-05-11 07:26:00,
2013-05-11 00:31:00,57.8,49.1,30.15,WSW,248,2.0,3.1,73,0.00,,,0.00,WUHU216HW,2013-05-11 07:31:00,
2013-05-11 00:36:00,57.6,49.0,30.15,SW,225,1.8,3.4,73,0.00,,,0.00,WUHU216HW,2013-05-11 07:36:00,
2013-05-11 00:41:00,57.6,49.0,30.16,SW,225,2.2,3.4,73,0.00,,,0.00,WUHU216HW,2013-05-11 07:41:00,
2013-05-11 00:46:00,57.4,48.8,30.16,WSW,248,1.3,3.4,73,0.00,,,0.00,WUHU216HW,2013-05-11 07:46:00,
2013-05-11 00:51:00,57.1,48.4,30.16,WSW,248,0.9,4.0,73,0.00,,,0.00,WUHU216HW,2013-05-11 07:51:00,
2013-05-11 00:56:00,56.9,48.6,30.16,WSW,248,2.7,5.4,74,0.00,,,0.00,WUHU216HW,2013-05-11 07:56:00,
2013-05-11 01:01:00,56.7,48.4,30.16,WSW,248,4.7,5.4,74,0.00,,,0.00,WUHU216HW,2013-05-11 08:01:00,
2013-05-11 01:06:00,56.5,48.2,30.16,WSW,248,1.8,4.7,74,0.00,,,0.00,WUHU216HW,2013-05-11 08:06:00,
2013-05-11 01:11:00,56.5,48.2,30.16,SW,225,2.9,6.0,74,0.00,,,0.00,WUHU216HW,2013-05-11 08:11:00,
2013-05-11 01:16:00,56.2,48.3,30.16,SW,225,1.3,6.0,75,0.00,,,0.00,WUHU216HW,2013-05-11 08:16:00,
2013-05-11 01:21:00,56.0,48.2,30.16,SW,225,4.5,4.7,75,0.00,,,0.00,WUHU216HW,2013-05-11 08:21:00,
2013-05-11 01:26:00,55.8,48.0,30.16,SW,225,3.1,5.6,75,0.00,,,0.00,WUHU216HW,2013-05-11 08:26:00,
2013-05-11 01:31:00,55.4,48.0,30.16,South,180,2.5,5.6,76,0.00,,,0.00,WUHU216HW,2013-05-11 08:31:00,
2013-05-11 01:36:00,55.3,47.8,30.16,West,270,3.1,4.7,76,0.00,,,0.00,WUHU216HW,2013-05-11 08:36:00,
2013-05-11 01:41:00,55.1,47.6,30.16,SW,225,1.1,4.7,76,0.00,,,0.00,WUHU216HW,2013-05-11 08:41:00,
2013-05-11 01:46:00,55.1,47.6,30.16,NW,315,2.7,4.7,76,0.00,,,0.00,WUHU216HW,2013-05-11 08:46:00,
2013-05-11 01:51:00,54.9,47.4,30.16,SSE,158,0.2,3.4,76,0.00,,,0.00,WUHU216HW,2013-05-11 08:51:00,
2013-05-11 01:56:00,54.7,47.3,30.16,SE,135,0.0,2.7,76,0.00,,,0.00,WUHU216HW,2013-05-11 08:56:00,
2013-05-11 02:01:00,54.7,47.3,30.16,SSW,203,1.1,2.5,76,0.00,,,0.00,WUHU216HW,2013-05-11 09:01:00,
2013-05-11 02:06:00,54.5,47.1,30.16,SW,225,0.9,2.5,76,0.00,,,0.00,WUHU216HW,2013-05-11 09:06:00,
2013-05-11 02:11:00,54.4,46.6,30.16,WSW,248,0.9,2.5,75,0.00,,,0.00,WUHU216HW,2013-05-11 09:11:00,
2013-05-11 02:16:00,54.4,46.6,30.16,SW,225,1.1,1.8,75,0.00,,,0.00,WUHU216HW,2013-05-11 09:16:00,
2013-05-11 02:21:00,54.0,46.3,30.16,SW,225,2.5,2.5,75,0.00,,,0.00,WUHU216HW,2013-05-11 09:21:00,
2013-05-11 02:26:00,53.8,46.1,30.16,SW,225,1.8,4.7,75,0.00,,,0.00,WUHU216HW,2013-05-11 09:26:00,
2013-05-11 02:31:00,53.6,45.9,30.16,WSW,248,0.7,4.7,75,0.00,,,0.00,WUHU216HW,2013-05-11 09:31:00,
2013-05-11 02:36:00,53.6,45.9,30.16,SW,225,1.8,2.9,75,0.00,,,0.00,WUHU216HW,2013-05-11 09:36:00,
2013-05-11 02:41:00,53.6,45.9,30.15,SW,225,0.2,1.8,75,0.00,,,0.00,WUHU216HW,2013-05-11 09:41:00,
2013-05-11 02:46:00,53.6,45.9,30.15,SE,135,0.2,1.8,75,0.00,,,0.00,WUHU216HW,2013-05-11 09:46:00,
2013-05-11 02:51:00,53.5,45.7,30.15,SW,225,0.7,1.8,75,0.00,,,0.00,WUHU216HW,2013-05-11 09:51:00,
2013-05-11 02:56:00,53.5,45.7,30.15,WSW,248,0.0,1.8,75,0.00,,,0.00,WUHU216HW,2013-05-11 09:56:00,
2013-05-11 03:01:00,53.3,45.2,30.15,WSW,248,0.0,0.7,74,0.00,,,0.00,WUHU216HW,2013-05-11 10:01:00,
2013-05-11 03:06:00,53.3,45.2,30.15,WSW,248,0.0,0.0,74,0.00,,,0.00,WUHU216HW,2013-05-11 10:06:00,
2013-05-11 03:11:00,53.1,45.0,30.15,WSW,248,0.0,0.7,74,0.00,,,0.00,WUHU216HW,2013-05-11 10:11:00,
2013-05-11 03:16:00,52.9,45.2,30.15,WSW,248,0.0,0.7,75,0.00,,,0.00,WUHU216HW,2013-05-11 10:16:00,
2013-05-11 03:21:00,52.9,45.2,30.15,WSW,248,0.4,0.4,75,0.00,,,0.00,WUHU216HW,2013-05-11 10:21:00,
2013-05-11 03:26:00,52.6,44.9,30.15,SW,225,0.0,1.3,75,0.00,,,0.00,WUHU216HW,2013-05-11 10:26:00,
2013-05-11 03:31:00,52.2,44.6,30.15,SW,225,1.1,1.8,75,0.00,,,0.00,WUHU216HW,2013-05-11 10:31:00,
2013-05-11 03:36:00,52.0,44.4,30.15,SW,225,0.9,1.8,75,0.00,,,0.00,WUHU216HW,2013-05-11 10:36:00,
2013-05-11 03:41:00,51.8,44.6,30.15,WSW,248,0.9,2.0,76,0.00,,,0.00,WUHU216HW,2013-05-11 10:41:00,
2013-05-11 03:46:00,51.8,44.6,30.15,SW,225,0.4,2.0,76,0.00,,,0.00,WUHU216HW,2013-05-11 10:46:00,
2013-05-11 03:51:00,51.8,44.6,30.14,WSW,248,1.1,2.2,76,0.00,,,0.00,WUHU216HW,2013-05-11 10:51:00,
2013-05-11 03:56:00,51.8,44.6,30.14,SW,225,0.0,2.2,76,0.00,,,0.00,WUHU216HW,2013-05-11 10:56:00,
2013-05-11 04:01:00,52.0,44.7,30.14,SW,225,0.0,1.1,76,0.00,,,0.00,WUHU216HW,2013-05-11 11:01:00,
2013-05-11 04:06:00,52.2,44.6,30.15,WSW,248,0.4,1.3,75,0.00,,,0.00,WUHU216HW,2013-05-11 11:06:00,
2013-05-11 04:11:00,52.2,44.6,30.15,WSW,248,0.4,1.3,75,0.00,,,0.00,WUHU216HW,2013-05-11 11:11:00,
2013-05-11 04:16:00,52.2,44.6,30.15,WSW,248,1.8,1.8,75,0.00,,,0.00,WUHU216HW,2013-05-11 11:16:00,
2013-05-11 04:21:00,52.2,44.6,30.15,SW,225,1.3,4.0,75,0.00,,,0.00,WUHU216HW,2013-05-11 11:21:00,
2013-05-11 04:26:00,52.2,44.6,30.15,WSW,248,2.2,4.9,75,0.00,,,0.00,WUHU216HW,2013-05-11 11:26:00,
2013-05-11 04:31:00,52.2,44.6,30.15,WSW,248,3.6,4.9,75,0.00,,,0.00,WUHU216HW,2013-05-11 11:31:00,
2013-05-11 04:36:00,52.2,44.6,30.15,West,270,4.3,4.7,75,0.00,,,0.00,WUHU216HW,2013-05-11 11:36:00,
2013-05-11 04:41:00,52.2,44.6,30.14,SSW,203,3.1,5.1,75,0.00,,,0.00,WUHU216HW,2013-05-11 11:41:00,
2013-05-11 04:46:00,52.2,44.6,30.14,WSW,248,3.1,5.1,75,0.00,,,0.00,WUHU216HW,2013-05-11 11:46:00,
2013-05-11 04:51:00,52.2,44.6,30.14,South,180,2.5,8.3,75,0.00,,,0.00,WUHU216HW,2013-05-11 11:51:00,
2013-05-11 04:56:00,52.2,44.6,30.14,WSW,248,3.4,8.3,75,0.00,,,0.00,WUHU216HW,2013-05-11 11:56:00,
2013-05-11 05:01:00,52.0,44.4,30.13,WSW,248,3.1,5.8,75,0.00,,,0.00,WUHU216HW,2013-05-11 12:01:00,
2013-05-11 05:06:00,52.0,44.7,30.13,SSW,203,3.8,5.8,76,0.00,,,0.00,WUHU216HW,2013-05-11 12:06:00,
2013-05-11 05:11:00,52.0,44.7,30.13,WSW,248,4.0,7.6,76,0.00,,,0.00,WUHU216HW,2013-05-11 12:11:00,
2013-05-11 05:16:00,52.0,44.7,30.13,SW,225,4.7,7.6,76,0.00,,,0.00,WUHU216HW,2013-05-11 12:16:00,
2013-05-11 05:21:00,51.8,44.9,30.13,SW,225,2.2,6.3,77,0.00,,,0.00,WUHU216HW,2013-05-11 12:21:00,
2013-05-11 05:26:00,51.8,44.9,30.13,West,270,1.1,6.3,77,0.00,,,0.00,WUHU216HW,2013-05-11 12:26:00,
2013-05-11 05:31:00,51.8,44.9,30.13,SW,225,1.3,6.7,77,0.00,,,0.00,WUHU216HW,2013-05-11 12:31:00,
2013-05-11 05:36:00,51.8,44.9,30.13,SW,225,2.0,6.7,77,0.00,,,0.00,WUHU216HW,2013-05-11 12:36:00,
2013-05-11 05:41:00,52.0,45.4,30.13,South,180,0.0,3.6,78,0.00,,,0.00,WUHU216HW,2013-05-11 12:41:00,
2013-05-11 05:46:00,52.0,45.4,30.13,WSW,248,4.0,4.0,78,0.00,,,0.00,WUHU216HW,2013-05-11 12:46:00,
2013-05-11 05:51:00,52.0,45.4,30.13,WNW,293,1.3,4.0,78,0.00,,,0.00,WUHU216HW,2013-05-11 12:51:00,
2013-05-11 05:56:00,52.0,45.4,30.13,South,180,1.3,3.6,78,0.00,,,0.00,WUHU216HW,2013-05-11 12:56:00,
2013-05-11 06:01:00,52.2,45.5,30.13,WSW,248,0.4,3.4,78,0.00,,,0.00,WUHU216HW,2013-05-11 13:01:00,
2013-05-11 06:06:00,52.2,45.5,30.13,WSW,248,1.1,3.4,78,0.00,,,0.00,WUHU216HW,2013-05-11 13:06:00,
2013-05-11 06:11:00,52.4,45.7,30.13,WSW,248,1.1,1.6,78,0.00,,,0.00,WUHU216HW,2013-05-11 13:11:00,
2013-05-11 06:16:00,52.4,45.7,30.14,SW,225,0.7,2.5,78,0.00,,,0.00,WUHU216HW,2013-05-11 13:16:00,
2013-05-11 06:21:00,52.6,45.9,30.13,NNE,23,0.4,2.5,78,0.00,,,0.00,WUHU216HW,2013-05-11 13:21:00,
2013-05-11 06:26:00,52.6,45.9,30.13,WSW,248,1.1,1.8,78,0.00,,,0.00,WUHU216HW,2013-05-11 13:26:00,
2013-05-11 06:31:00,52.6,45.9,30.13,WSW,248,1.1,2.5,78,0.00,,,0.00,WUHU216HW,2013-05-11 13:31:00,
2013-05-11 06:36:00,52.6,45.9,30.13,SW,225,0.4,2.5,78,0.00,,,0.00,WUHU216HW,2013-05-11 13:36:00,
2013-05-11 06:41:00,52.7,46.1,30.13,WSW,248,1.1,1.6,78,0.00,,,0.00,WUHU216HW,2013-05-11 13:41:00,
2013-05-11 06:46:00,52.7,46.1,30.12,WSW,248,1.1,3.6,78,0.00,,,0.00,WUHU216HW,2013-05-11 13:46:00,
2013-05-11 06:51:00,52.9,46.3,30.13,WSW,248,1.1,3.6,78,0.00,,,0.00,WUHU216HW,2013-05-11 13:51:00,
2013-05-11 06:56:00,53.1,46.4,30.13,SSE,158,0.7,3.1,78,0.00,,,0.00,WUHU216HW,2013-05-11 13:56:00,
2013-05-11 07:01:00,53.3,47.0,30.13,SSE,158,0.2,2.7,79,0.00,,,0.00,WUHU216HW,2013-05-11 14:01:00,
2013-05-11 07:06:00,53.3,46.6,30.13,SW,225,1.1,2.7,78,0.00,,,0.00,WUHU216HW,2013-05-11 14:06:00,
2013-05-11 07:11:00,53.5,46.8,30.13,West,270,0.0,2.2,78,0.00,,,0.00,WUHU216HW,2013-05-11 14:11:00,
2013-05-11 07:16:00,53.6,47.0,30.13,SSE,158,0.0,1.6,78,0.00,,,0.00,WUHU216HW,2013-05-11 14:16:00,
2013-05-11 07:21:00,53.6,47.0,30.13,SSW,203,0.4,1.8,78,0.00,,,0.00,WUHU216HW,2013-05-11 14:21:00,
2013-05-11 07:26:00,54.0,47.4,30.14,SW,225,1.8,2.9,78,0.00,,,0.00,WUHU216HW,2013-05-11 14:26:00,
2013-05-11 07:31:00,54.0,47.4,30.14,SSW,203,1.1,4.0,78,0.00,,,0.00,WUHU216HW,2013-05-11 14:31:00,
2013-05-11 07:36:00,54.0,47.4,30.14,West,270,1.8,4.0,78,0.00,,,0.00,WUHU216HW,2013-05-11 14:36:00,
2013-05-11 07:41:00,54.2,47.5,30.14,WSW,248,3.8,4.0,78,0.00,,,0.00,WUHU216HW,2013-05-11 14:41:00,
2013-05-11 07:46:00,54.4,47.6,30.14,SE,135,0.2,4.0,78,0.00,,,0.00,WUHU216HW,2013-05-11 14:46:00,
2013-05-11 07:51:00,54.5,48.2,30.14,SSW,203,0.9,3.8,79,0.00,,,0.00,WUHU216HW,2013-05-11 14:51:00,
2013-05-11 07:56:00,54.7,48.3,30.14,WSW,248,3.1,3.8,79,0.00,,,0.00,WUHU216HW,2013-05-11 14:56:00,
2013-05-11 08:01:00,55.1,48.3,30.14,WSW,248,1.6,5.8,78,0.00,,,0.00,WUHU216HW,2013-05-11 15:01:00,
2013-05-11 08:06:00,55.1,48.3,30.14,SE,135,0.7,5.8,78,0.00,,,0.00,WUHU216HW,2013-05-11 15:06:00,
2013-05-11 08:11:00,55.1,48.3,30.14,WSW,248,0.2,5.1,78,0.00,,,0.00,WUHU216HW,2013-05-11 15:11:00,
2013-05-11 08:16:00,55.3,48.5,30.14,SW,225,3.4,3.6,78,0.00,,,0.00,WUHU216HW,2013-05-11 15:16:00,
2013-05-11 08:21:00,55.4,48.6,30.14,SW,225,0.2,3.6,78,0.00,,,0.00,WUHU216HW,2013-05-11 15:21:00,
2013-05-11 08:26:00,55.4,48.3,30.14,WSW,248,1.6,3.4,77,0.00,,,0.00,WUHU216HW,2013-05-11 15:26:00,
2013-05-11 08:31:00,55.4,48.3,30.14,SE,135,1.1,3.1,77,0.00,,,0.00,WUHU216HW,2013-05-11 15:31:00,
2013-05-11 08:36:00,55.8,48.6,30.14,WSW,248,1.3,3.1,77,0.00,,,0.00,WUHU216HW,2013-05-11 15:36:00,
2013-05-11 08:41:00,56.0,48.8,30.13,WSW,248,0.4,2.7,77,0.00,,,0.00,WUHU216HW,2013-05-11 15:41:00,
2013-05-11 08:46:00,56.2,48.6,30.13,SSW,203,0.2,2.7,76,0.00,,,0.00,WUHU216HW,2013-05-11 15:46:00,
2013-05-11 08:51:00,56.3,48.8,30.13,WSW,248,1.3,2.9,76,0.00,,,0.00,WUHU216HW,2013-05-11 15:51:00,
2013-05-11 08:56:00,56.5,49.0,30.13,WSW,248,0.2,2.9,76,0.00,,,0.00,WUHU216HW,2013-05-11 15:56:00,
2013-05-11 09:01:00,56.9,49.3,30.13,SW,225,0.9,1.3,76,0.00,,,0.00,WUHU216HW,2013-05-11 16:01:00,
2013-05-11 09:06:00,57.2,49.7,30.13,NW,315,1.1,1.8,76,0.00,,,0.00,WUHU216HW,2013-05-11 16:06:00,
2013-05-11 09:11:00,57.6,50.0,30.13,SW,225,0.4,2.5,76,0.00,,,0.00,WUHU216HW,2013-05-11 16:11:00,
2013-05-11 09:16:00,58.1,50.2,30.13,WSW,248,0.7,2.5,75,0.00,,,0.00,WUHU216HW,2013-05-11 16:16:00,
2013-05-11 09:21:00,59.0,50.8,30.13,SSW,203,0.4,1.8,74,0.00,,,0.00,WUHU216HW,2013-05-11 16:21:00,
2013-05-11 09:26:00,60.1,50.8,30.12,NE,45,2.5,4.0,71,0.00,,,0.00,WUHU216HW,2013-05-11 16:26:00,
2013-05-11 09:31:00,60.8,50.3,30.12,ENE,68,2.0,4.0,68,0.00,,,0.00,WUHU216HW,2013-05-11 16:31:00,
2013-05-11 09:36:00,60.8,49.9,30.12,ENE,68,0.9,3.4,67,0.00,,,0.00,WUHU216HW,2013-05-11 16:36:00,
2013-05-11 09:41:00,61.0,49.6,30.12,ENE,68,2.0,3.4,66,0.00,,,0.00,WUHU216HW,2013-05-11 16:41:00,
2013-05-11 09:46:00,61.7,49.9,30.12,SE,135,2.2,3.4,65,0.00,,,0.00,WUHU216HW,2013-05-11 16:46:00,
2013-05-11 09:51:00,61.6,49.7,30.12,ENE,68,1.6,3.4,65,0.00,,,0.00,WUHU216HW,2013-05-11 16:51:00,
2013-05-11 09:56:00,61.4,49.5,30.11,NNE,23,4.0,4.0,65,0.00,,,0.00,WUHU216HW,2013-05-11 16:56:00,
2013-05-11 10:01:00,61.6,48.9,30.11,ENE,68,2.2,5.4,63,0.00,,,0.00,WUHU216HW,2013-05-11 17:01:00,
2013-05-11 10:06:00,61.2,49.0,30.11,NNE,23,0.9,5.4,64,0.00,,,0.00,WUHU216HW,2013-05-11 17:06:00,
2013-05-11 10:11:00,61.4,49.5,30.12,NNE,23,3.1,4.0,65,0.00,,,0.00,WUHU216HW,2013-05-11 17:11:00,
2013-05-11 10:16:00,61.7,50.3,30.12,ENE,68,1.8,3.4,66,0.00,,,0.00,WUHU216HW,2013-05-11 17:16:00,
2013-05-11 10:21:00,62.3,50.3,30.12,NE,45,2.9,3.4,65,0.00,,,0.00,WUHU216HW,2013-05-11 17:21:00,
2013-05-11 10:26:00,63.0,50.6,30.12,ESE,113,1.1,4.0,64,0.00,,,0.00,WUHU216HW,2013-05-11 17:26:00,
2013-05-11 10:31:00,63.4,50.5,30.11,NE,45,2.7,4.0,63,0.00,,,0.00,WUHU216HW,2013-05-11 17:31:00,
2013-05-11 10:36:00,63.5,50.7,30.11,NE,45,3.6,4.7,63,0.00,,,0.00,WUHU216HW,2013-05-11 17:36:00,
2013-05-11 10:41:00,63.9,50.1,30.11,NNE,23,4.0,4.9,61,0.00,,,0.00,WUHU216HW,2013-05-11 17:41:00,
2013-05-11 10:46:00,64.4,50.7,30.11,NNE,23,4.5,4.9,61,0.00,,,0.00,WUHU216HW,2013-05-11 17:46:00,
2013-05-11 10:51:00,64.6,50.0,30.11,ENE,68,2.2,4.7,59,0.00,,,0.00,WUHU216HW,2013-05-11 17:51:00,
2013-05-11 10:56:00,64.6,49.4,30.11,ENE,68,2.7,4.7,58,0.00,,,0.00,WUHU216HW,2013-05-11 17:56:00,
2013-05-11 11:01:00,64.8,50.6,30.11,NE,45,4.9,4.9,60,0.00,,,0.00,WUHU216HW,2013-05-11 18:01:00,
2013-05-11 11:06:00,65.5,50.9,30.10,North,0,4.0,4.9,59,0.00,,,0.00,WUHU216HW,2013-05-11 18:06:00,
2013-05-11 11:11:00,65.9,50.7,30.10,NE,45,1.3,4.9,58,0.00,,,0.00,WUHU216HW,2013-05-11 18:11:00,
2013-05-11 11:16:00,66.2,51.0,30.10,North,0,4.9,5.4,58,0.00,,,0.00,WUHU216HW,2013-05-11 18:16:00,
2013-05-11 11:21:00,66.8,50.6,30.10,NE,45,2.9,5.4,56,0.00,,,0.00,WUHU216HW,2013-05-11 18:21:00,
2013-05-11 11:26:00,67.0,51.7,30.10,NNE,23,3.4,5.4,58,0.00,,,0.00,WUHU216HW,2013-05-11 18:26:00,
2013-05-11 11:31:00,68.2,52.4,30.10,NNE,23,3.6,5.1,57,0.00,,,0.00,WUHU216HW,2013-05-11 18:31:00,
2013-05-11 11:36:00,68.6,52.2,30.10,North,0,3.4,5.1,56,0.00,,,0.00,WUHU216HW,2013-05-11 18:36:00,
2013-05-11 11:41:00,69.5,52.6,30.10,NE,45,2.0,4.0,55,0.00,,,0.00,WUHU216HW,2013-05-11 18:41:00,
2013-05-11 11:46:00,69.7,51.8,30.10,NE,45,3.8,4.0,53,0.00,,,0.00,WUHU216HW,2013-05-11 18:46:00,
2013-05-11 11:51:00,69.5,51.6,30.10,NE,45,3.6,4.7,53,0.00,,,0.00,WUHU216HW,2013-05-11 18:51:00,
2013-05-11 11:56:00,69.1,52.2,30.09,NE,45,2.0,4.7,55,0.00,,,0.00,WUHU216HW,2013-05-11 18:56:00,
2013-05-11 12:01:00,69.1,51.2,30.09,ESE,113,1.8,4.5,53,0.00,,,0.00,WUHU216HW,2013-05-11 19:01:00,
2013-05-11 12:06:00,68.9,52.6,30.09,ENE,68,2.5,4.5,56,0.00,,,0.00,WUHU216HW,2013-05-11 19:06:00,
2013-05-11 12:11:00,69.5,52.1,30.09,ENE,68,2.0,3.4,54,0.00,,,0.00,WUHU216HW,2013-05-11 19:11:00,
2013-05-11 12:16:00,69.8,51.4,30.09,ENE,68,4.0,4.0,52,0.00,,,0.00,WUHU216HW,2013-05-11 19:16:00,
2013-05-11 12:21:00,69.3,51.4,30.08,ESE,113,1.8,4.0,53,0.00,,,0.00,WUHU216HW,2013-05-11 19:21:00,
2013-05-11 12:26:00,68.8,51.0,30.08,ENE,68,1.6,4.0,53,0.00,,,0.00,WUHU216HW,2013-05-11 19:26:00,
2013-05-11 12:31:00,68.8,51.9,30.08,ENE,68,0.7,3.6,55,0.00,,,0.00,WUHU216HW,2013-05-11 19:31:00,
2013-05-11 12:36:00,68.9,52.0,30.08,ESE,113,0.4,2.7,55,0.00,,,0.00,WUHU216HW,2013-05-11 19:36:00,
2013-05-11 12:41:00,69.3,51.4,30.08,ENE,68,1.8,2.7,53,0.00,,,0.00,WUHU216HW,2013-05-11 19:41:00,
2013-05-11 12:46:00,70.2,53.3,30.08,North,0,0.9,2.7,55,0.00,,,0.00,WUHU216HW,2013-05-11 19:46:00,
2013-05-11 12:51:00,71.6,55.1,30.08,ESE,113,0.0,2.7,56,0.00,,,0.00,WUHU216HW,2013-05-11 19:51:00,
2013-05-11 12:56:00,73.1,54.8,30.08,WSW,248,1.3,4.5,53,0.00,,,0.00,WUHU216HW,2013-05-11 19:56:00,
2013-05-11 13:01:00,74.2,55.4,30.07,SSE,158,0.9,4.5,52,0.00,,,0.00,WUHU216HW,2013-05-11 20:01:00,
2013-05-11 13:06:00,74.9,55.6,30.07,West,270,5.4,6.5,51,0.00,,,0.00,WUHU216HW,2013-05-11 20:06:00,
2013-05-11 13:11:00,74.9,54.5,30.07,SW,225,2.0,6.5,49,0.00,,,0.00,WUHU216HW,2013-05-11 20:11:00,
2013-05-11 13:16:00,74.7,54.9,30.07,SE,135,1.1,5.4,50,0.00,,,0.00,WUHU216HW,2013-05-11 20:16:00,
2013-05-11 13:21:00,74.7,55.5,30.07,ESE,113,2.0,3.4,51,0.00,,,0.00,WUHU216HW,2013-05-11 20:21:00,
2013-05-11 13:26:00,74.0,54.7,30.07,ESE,113,0.9,2.2,51,0.00,,,0.00,WUHU216HW,2013-05-11 20:26:00,
2013-05-11 13:31:00,73.8,55.5,30.07,ESE,113,0.2,2.0,53,0.00,,,0.00,WUHU216HW,2013-05-11 20:31:00,
2013-05-11 13:36:00,74.7,56.4,30.07,SSE,158,1.1,1.8,53,0.00,,,0.00,WUHU216HW,2013-05-11 20:36:00,
2013-05-11 13:41:00,75.6,56.8,30.07,NW,315,1.8,1.8,52,0.00,,,0.00,WUHU216HW,2013-05-11 20:41:00,
2013-05-11 13:46:00,76.3,56.4,30.07,NE,45,0.4,1.8,50,0.00,,,0.00,WUHU216HW,2013-05-11 20:46:00,
2013-05-11 13:51:00,76.0,56.6,30.07,ESE,113,1.3,4.5,51,0.00,,,0.00,WUHU216HW,2013-05-11 20:51:00,
2013-05-11 13:56:00,76.3,56.4,30.06,NNE,23,1.1,4.5,50,0.00,,,0.00,WUHU216HW,2013-05-11 20:56:00,
2013-05-11 14:01:00,76.7,56.7,30.06,SE,135,0.4,1.8,50,0.00,,,0.00,WUHU216HW,2013-05-11 21:01:00,
2013-05-11 14:06:00,76.9,56.9,30.06,ESE,113,0.7,3.4,50,0.00,,,0.00,WUHU216HW,2013-05-11 21:06:00,
2013-05-11 14:11:00,77.2,56.6,30.05,ENE,68,2.5,3.4,49,0.00,,,0.00,WUHU216HW,2013-05-11 21:11:00,
2013-05-11 14:16:00,77.2,57.3,30.05,WSW,248,0.9,2.5,50,0.00,,,0.00,WUHU216HW,2013-05-11 21:16:00,
2013-05-11 14:21:00,77.4,57.4,30.06,SSE,158,0.2,2.5,50,0.00,,,0.00,WUHU216HW,2013-05-11 21:21:00,
2013-05-11 14:26:00,76.9,56.9,30.05,SE,135,1.1,1.6,50,0.00,,,0.00,WUHU216HW,2013-05-11 21:26:00,
2013-05-11 14:31:00,76.3,56.4,30.05,SSW,203,1.6,2.5,50,0.00,,,0.00,WUHU216HW,2013-05-11 21:31:00,
2013-05-11 14:36:00,76.1,56.8,30.05,SW,225,0.4,2.5,51,0.00,,,0.00,WUHU216HW,2013-05-11 21:36:00,
2013-05-11 14:41:00,76.3,57.4,30.05,ENE,68,0.4,2.0,52,0.00,,,0.00,WUHU216HW,2013-05-11 21:41:00,
2013-05-11 14:46:00,76.3,56.4,30.05,ENE,68,1.6,3.4,50,0.00,,,0.00,WUHU216HW,2013-05-11 21:46:00,
2013-05-11 14:51:00,76.1,57.2,30.05,ENE,68,0.9,3.4,52,0.00,,,0.00,WUHU216HW,2013-05-11 21:51:00,
2013-05-11 14:56:00,76.1,56.8,30.05,SE,135,1.1,2.0,51,0.00,,,0.00,WUHU216HW,2013-05-11 21:56:00,
2013-05-11 15:01:00,76.1,56.3,30.04,East,90,2.5,2.5,50,0.00,,,0.00,WUHU216HW,2013-05-11 22:01:00,
2013-05-11 15:06:00,76.3,55.2,30.04,NE,45,0.9,3.8,48,0.00,,,0.00,WUHU216HW,2013-05-11 22:06:00,
2013-05-11 15:11:00,77.4,56.2,30.04,WSW,248,0.4,5.6,48,0.00,,,0.00,WUHU216HW,2013-05-11 22:11:00,
2013-05-11 15:16:00,77.8,55.9,30.04,WSW,248,1.6,5.6,47,0.00,,,0.00,WUHU216HW,2013-05-11 22:16:00,
2013-05-11 15:21:00,78.5,56.5,30.04,SSE,158,2.0,7.2,47,0.00,,,0.00,WUHU216HW,2013-05-11 22:21:00,
2013-05-11 15:26:00,79.0,56.4,30.03,SW,225,1.6,7.2,46,0.00,,,0.00,WUHU216HW,2013-05-11 22:26:00,
2013-05-11 15:31:00,79.7,55.8,30.03,SSW,203,5.1,9.8,44,0.00,,,0.00,WUHU216HW,2013-05-11 22:31:00,
2013-05-11 15:36:00,79.9,56.6,30.03,SSE,158,4.7,9.8,45,0.00,,,0.00,WUHU216HW,2013-05-11 22:36:00,
2013-05-11 15:41:00,80.1,56.2,30.03,SSE,158,4.0,7.4,44,0.00,,,0.00,WUHU216HW,2013-05-11 22:41:00,
2013-05-11 15:46:00,80.3,55.7,30.02,SW,225,5.6,6.9,43,0.00,,,0.00,WUHU216HW,2013-05-11 22:46:00,
2013-05-11 15:51:00,80.6,56.0,30.02,NW,315,2.2,7.4,43,0.00,,,0.00,WUHU216HW,2013-05-11 22:51:00,
2013-05-11 15:56:00,80.6,56.6,30.02,SW,225,1.8,7.4,44,0.00,,,0.00,WUHU216HW,2013-05-11 22:56:00,
2013-05-11 16:01:00,80.8,56.2,30.02,South,180,4.7,6.9,43,0.00,,,0.00,WUHU216HW,2013-05-11 23:01:00,
2013-05-11 16:06:00,81.0,55.7,30.02,SW,225,4.3,6.9,42,0.00,,,0.00,WUHU216HW,2013-05-11 23:06:00,
2013-05-11 16:11:00,81.0,55.7,30.02,WSW,248,5.8,6.3,42,0.00,,,0.00,WUHU216HW,2013-05-11 23:11:00,
2013-05-11 16:16:00,81.0,57.0,30.01,SE,135,2.9,6.3,44,0.00,,,0.00,WUHU216HW,2013-05-11 23:16:00,
2013-05-11 16:21:00,81.0,56.3,30.02,West,270,2.5,8.1,43,0.00,,,0.00,WUHU216HW,2013-05-11 23:21:00,
2013-05-11 16:26:00,81.2,56.5,30.02,SW,225,6.0,8.1,43,0.00,,,0.00,WUHU216HW,2013-05-11 23:26:00,
2013-05-11 16:31:00,81.0,55.7,30.02,SW,225,0.4,8.1,42,0.00,,,0.00,WUHU216HW,2013-05-11 23:31:00,
2013-05-11 16:36:00,80.6,55.5,30.01,SW,225,4.5,8.1,42,0.00,,,0.00,WUHU216HW,2013-05-11 23:36:00,
2013-05-11 16:41:00,80.1,55.5,30.01,WSW,248,2.9,5.4,43,0.00,,,0.00,WUHU216HW,2013-05-11 23:41:00,
2013-05-11 16:46:00,79.9,56.0,30.01,SE,135,0.4,6.3,44,0.00,,,0.00,WUHU216HW,2013-05-11 23:46:00,
2013-05-11 16:51:00,79.7,55.8,30.01,SSW,203,1.6,6.3,44,0.00,,,0.00,WUHU216HW,2013-05-11 23:51:00,
2013-05-11 16:56:00,79.6,56.3,30.01,WSW,248,4.3,5.1,45,0.00,,,0.00,WUHU216HW,2013-05-11 23:56:00,
2013-05-11 17:01:00,79.2,56.0,30.01,WSW,248,1.6,5.1,45,0.00,,,0.00,WUHU216HW,2013-05-12 00:01:00,
2013-05-11 17:06:00,79.0,55.8,30.00,SSW,203,1.3,4.3,45,0.00,,,0.00,WUHU216HW,2013-05-12 00:06:00,
2013-05-11 17:11:00,78.8,55.6,30.00,SSW,203,0.9,4.0,45,0.00,,,0.00,WUHU216HW,2013-05-12 00:11:00,
2013-05-11 17:16:00,78.5,55.9,30.00,East,90,0.0,2.7,46,0.00,,,0.00,WUHU216HW,2013-05-12 00:16:00,
2013-05-11 17:21:00,78.7,56.7,30.00,WSW,248,1.8,1.8,47,0.00,,,0.00,WUHU216HW,2013-05-12 00:21:00,
2013-05-11 17:26:00,79.0,57.0,30.00,SSW,203,2.0,2.5,47,0.00,,,0.00,WUHU216HW,2013-05-12 00:26:00,
2013-05-11 17:31:00,79.6,56.9,30.00,SE,135,2.5,3.6,46,0.00,,,0.00,WUHU216HW,2013-05-12 00:31:00,
2013-05-11 17:36:00,80.1,56.8,30.00,SSW,203,5.6,7.8,45,0.00,,,0.00,WUHU216HW,2013-05-12 00:36:00,
2013-05-11 17:41:00,80.3,56.4,30.00,West,270,2.5,7.8,44,0.00,,,0.00,WUHU216HW,2013-05-12 00:41:00,
2013-05-11 17:46:00,80.1,56.2,29.99,SW,225,1.3,7.6,44,0.00,,,0.00,WUHU216HW,2013-05-12 00:46:00,
2013-05-11 17:51:00,79.7,56.4,29.99,WSW,248,0.9,7.6,45,0.00,,,0.00,WUHU216HW,2013-05-12 00:51:00,
2013-05-11 17:56:00,79.6,55.6,29.99,WSW,248,6.0,7.6,44,0.00,,,0.00,WUHU216HW,2013-05-12 00:56:00,
2013-05-11 18:01:00,79.2,56.0,29.99,SW,225,3.4,8.5,45,0.00,,,0.00,WUHU216HW,2013-05-12 01:01:00,
2013-05-11 18:06:00,78.8,56.3,29.99,SW,225,1.8,8.5,46,0.00,,,0.00,WUHU216HW,2013-05-12 01:06:00,
2013-05-11 18:11:00,78.5,56.5,29.99,WSW,248,1.8,6.9,47,0.00,,,0.00,WUHU216HW,2013-05-12 01:11:00,
2013-05-11 18:16:00,78.5,57.2,29.99,South,180,3.4,5.1,48,0.00,,,0.00,WUHU216HW,2013-05-12 01:16:00,
2013-05-11 18:21:00,78.1,56.8,29.99,WSW,248,1.1,4.5,48,0.00,,,0.00,WUHU216HW,2013-05-12 01:21:00,
2013-05-11 18:26:00,77.9,57.2,29.99,SW,225,2.0,5.6,49,0.00,,,0.00,WUHU216HW,2013-05-12 01:26:00,
2013-05-11 18:31:00,77.8,57.1,29.99,SSE,158,0.4,7.8,49,0.00,,,0.00,WUHU216HW,2013-05-12 01:31:00,
2013-05-11 18:36:00,77.4,56.8,29.99,WSW,248,3.1,7.8,49,0.00,,,0.00,WUHU216HW,2013-05-12 01:36:00,
2013-05-11 18:41:00,77.0,56.4,29.99,SSW,203,1.1,6.3,49,0.00,,,0.00,WUHU216HW,2013-05-12 01:41:00,
2013-05-11 18:46:00,76.7,56.7,29.99,SSW,203,2.5,4.7,50,0.00,,,0.00,WUHU216HW,2013-05-12 01:46:00,
2013-05-11 18:51:00,76.1,55.6,29.99,WSW,248,3.1,6.3,49,0.00,,,0.00,WUHU216HW,2013-05-12 01:51:00,
2013-05-11 18:56:00,75.6,55.8,29.99,SSW,203,0.7,6.3,50,0.00,,,0.00,WUHU216HW,2013-05-12 01:56:00,
2013-05-11 19:01:00,75.4,55.6,29.99,SSE,158,1.8,5.4,50,0.00,,,0.00,WUHU216HW,2013-05-12 02:01:00,
2013-05-11 19:06:00,75.2,56.0,29.99,SSW,203,2.5,5.4,51,0.00,,,0.00,WUHU216HW,2013-05-12 02:06:00,
2013-05-11 19:11:00,75.1,55.8,29.99,WSW,248,2.2,6.0,51,0.00,,,0.00,WUHU216HW,2013-05-12 02:11:00,
2013-05-11 19:16:00,74.7,55.9,29.99,West,270,2.2,6.0,52,0.00,,,0.00,WUHU216HW,2013-05-12 02:16:00,
2013-05-11 19:21:00,74.5,56.3,29.99,West,270,2.5,5.8,53,0.00,,,0.00,WUHU216HW,2013-05-12 02:21:00,
2013-05-11 19:26:00,74.5,56.3,29.99,South,180,1.6,5.8,53,0.00,,,0.00,WUHU216HW,2013-05-12 02:26:00,
2013-05-11 19:31:00,74.2,56.9,29.99,WNW,293,1.8,5.4,55,0.00,,,0.00,WUHU216HW,2013-05-12 02:31:00,
2013-05-11 19:36:00,74.0,57.3,29.98,SW,225,1.1,5.6,56,0.00,,,0.00,WUHU216HW,2013-05-12 02:36:00,
2013-05-11 19:41:00,73.8,57.5,29.98,SSE,158,2.2,5.6,57,0.00,,,0.00,WUHU216HW,2013-05-12 02:41:00,
2013-05-11 19:46:00,73.6,57.3,29.98,WSW,248,2.5,4.3,57,0.00,,,0.00,WUHU216HW,2013-05-12 02:46:00,
2013-05-11 19:51:00,73.4,57.7,29.98,SW,225,1.8,4.3,58,0.00,,,0.00,WUHU216HW,2013-05-12 02:51:00,
2013-05-11 19:56:00,73.1,57.3,29.99,SSW,203,2.5,4.0,58,0.00,,,0.00,WUHU216HW,2013-05-12 02:56:00,
2013-05-11 20:01:00,72.9,57.7,29.98,SW,225,0.4,4.0,59,0.00,,,0.00,WUHU216HW,2013-05-12 03:01:00,
2013-05-11 20:06:00,72.5,57.9,29.98,WNW,293,0.4,5.6,60,0.00,,,0.00,WUHU216HW,2013-05-12 03:06:00,
2013-05-11 20:11:00,72.4,57.7,29.99,SW,225,0.9,5.6,60,0.00,,,0.00,WUHU216HW,2013-05-12 03:11:00,
2013-05-11 20:16:00,72.0,57.8,29.98,SW,225,0.7,3.6,61,0.00,,,0.00,WUHU216HW,2013-05-12 03:16:00,
2013-05-11 20:21:00,71.8,57.7,29.99,WSW,248,2.5,3.6,61,0.00,,,0.00,WUHU216HW,2013-05-12 03:21:00,
2013-05-11 20:26:00,71.5,57.8,29.99,SSE,158,4.0,4.0,62,0.00,,,0.00,WUHU216HW,2013-05-12 03:26:00,
2013-05-11 20:31:00,71.1,57.9,29.99,SW,225,1.1,4.3,63,0.00,,,0.00,WUHU216HW,2013-05-12 03:31:00,
2013-05-11 20:36:00,70.9,57.2,29.99,SE,135,2.0,4.3,62,0.00,,,0.00,WUHU216HW,2013-05-12 03:36:00,
2013-05-11 20:41:00,70.6,57.3,29.99,WSW,248,1.1,3.8,63,0.00,,,0.00,WUHU216HW,2013-05-12 03:41:00,
2013-05-11 20:46:00,70.2,57.4,29.99,SW,225,6.0,6.7,64,0.00,,,0.00,WUHU216HW,2013-05-12 03:46:00,
2013-05-11 20:51:00,70.0,57.2,29.99,WSW,248,4.0,8.5,64,0.00,,,0.00,WUHU216HW,2013-05-12 03:51:00,
2013-05-11 20:56:00,69.8,57.1,30.00,SSW,203,2.5,8.5,64,0.00,,,0.00,WUHU216HW,2013-05-12 03:56:00,
2013-05-11 21:01:00,69.7,57.3,30.00,SSE,158,2.9,5.6,65,0.00,,,0.00,WUHU216HW,2013-05-12 04:01:00,
2013-05-11 21:06:00,69.5,57.2,30.00,SSW,203,3.4,5.6,65,0.00,,,0.00,WUHU216HW,2013-05-12 04:06:00,
2013-05-11 21:11:00,69.3,57.0,30.00,SW,225,2.5,6.0,65,0.00,,,0.00,WUHU216HW,2013-05-12 04:11:00,
2013-05-11 21:16:00,69.1,56.8,30.00,West,270,2.2,6.0,65,0.00,,,0.00,WUHU216HW,2013-05-12 04:16:00,
2013-05-11 21:21:00,68.9,56.7,30.00,SW,225,0.9,4.9,65,0.00,,,0.00,WUHU216HW,2013-05-12 04:21:00,
2013-05-11 21:26:00,68.8,56.5,30.00,WSW,248,3.6,4.9,65,0.00,,,0.00,WUHU216HW,2013-05-12 04:26:00,
2013-05-11 21:31:00,68.6,56.4,30.00,SW,225,2.7,4.9,65,0.00,,,0.00,WUHU216HW,2013-05-12 04:31:00,
2013-05-11 21:36:00,68.4,56.6,30.01,SW,225,2.0,6.5,66,0.00,,,0.00,WUHU216HW,2013-05-12 04:36:00,
2013-05-11 21:41:00,68.4,56.6,30.01,WNW,293,0.9,6.5,66,0.00,,,0.00,WUHU216HW,2013-05-12 04:41:00,
2013-05-11 21:46:00,68.2,56.4,30.01,West,270,1.8,2.7,66,0.00,,,0.00,WUHU216HW,2013-05-12 04:46:00,
2013-05-11 21:51:00,68.0,56.3,30.01,West,270,2.2,2.7,66,0.00,,,0.00,WUHU216HW,2013-05-12 04:51:00,
2013-05-11 21:56:00,68.0,56.3,30.01,WSW,248,1.6,2.7,66,0.00,,,0.00,WUHU216HW,2013-05-12 04:56:00,
2013-05-11 22:01:00,68.0,56.3,30.01,ESE,113,0.7,2.2,66,0.00,,,0.00,WUHU216HW,2013-05-12 05:01:00,
2013-05-11 22:06:00,68.0,56.3,30.01,SW,225,0.4,2.0,66,0.00,,,0.00,WUHU216HW,2013-05-12 05:06:00,
2013-05-11 22:11:00,68.0,56.3,30.01,SW,225,0.0,1.1,66,0.00,,,0.00,WUHU216HW,2013-05-12 05:11:00,
2013-05-11 22:16:00,67.7,55.9,30.01,SW,225,0.0,1.1,66,0.00,,,0.00,WUHU216HW,2013-05-12 05:16:00,
2013-05-11 22:21:00,67.5,56.2,30.01,SW,225,0.0,0.4,67,0.00,,,0.00,WUHU216HW,2013-05-12 05:21:00,
2013-05-11 22:26:00,67.1,56.3,30.01,NE,45,0.2,1.8,68,0.00,,,0.00,WUHU216HW,2013-05-12 05:26:00,
2013-05-11 22:31:00,66.8,55.9,30.01,ESE,113,0.0,1.8,68,0.00,,,0.00,WUHU216HW,2013-05-12 05:31:00,
2013-05-11 22:36:00,66.2,55.7,30.02,NE,45,1.1,1.6,69,0.00,,,0.00,WUHU216HW,2013-05-12 05:36:00,
2013-05-11 22:41:00,66.1,55.6,30.01,SSW,203,0.0,1.6,69,0.00,,,0.00,WUHU216HW,2013-05-12 05:41:00,
2013-05-11 22:46:00,65.9,55.5,30.01,SSW,203,0.2,1.1,69,0.00,,,0.00,WUHU216HW,2013-05-12 05:46:00,
2013-05-11 22:51:00,65.9,55.5,30.01,WSW,248,0.0,1.1,69,0.00,,,0.00,WUHU216HW,2013-05-12 05:51:00,
2013-05-11 22:56:00,64.3,53.1,30.01,ENE,68,2.5,3.8,67,0.00,,,0.00,WUHU216HW,2013-05-12 05:56:00,
2013-05-11 23:01:00,62.3,52.0,30.01,NNE,23,1.1,3.8,69,0.00,,,0.00,WUHU216HW,2013-05-12 06:01:00,
2013-05-11 23:06:00,61.4,51.2,30.01,ENE,68,0.4,2.5,69,0.00,,,0.00,WUHU216HW,2013-05-12 06:06:00,
2013-05-11 23:11:00,60.8,51.5,30.01,NNE,23,4.0,4.0,71,0.00,,,0.00,WUHU216HW,2013-05-12 06:11:00,
2013-05-11 23:16:00,60.7,51.3,30.02,NNE,23,3.4,4.5,71,0.00,,,0.00,WUHU216HW,2013-05-12 06:16:00,
2013-05-11 23:21:00,60.8,51.1,30.02,ENE,68,0.7,4.5,70,0.00,,,0.00,WUHU216HW,2013-05-12 06:21:00,
2013-05-11 23:26:00,61.0,50.9,30.02,SSW,203,1.1,3.4,69,0.00,,,0.00,WUHU216HW,2013-05-12 06:26:00,
2013-05-11 23:31:00,61.0,50.9,30.02,SW,225,0.9,1.6,69,0.00,,,0.00,WUHU216HW,2013-05-12 06:31:00,
2013-05-11 23:36:00,61.2,51.0,30.02,ESE,113,0.0,1.6,69,0.00,,,0.00,WUHU216HW,2013-05-12 06:36:00,
2013-05-11 23:41:00,61.4,51.2,30.03,SW,225,0.2,0.9,69,0.00,,,0.00,WUHU216HW,2013-05-12 06:41:00,
2013-05-11 23:46:00,61.4,51.2,30.03,WSW,248,0.4,2.2,69,0.00,,,0.00,WUHU216HW,2013-05-12 06:46:00,
2013-05-11 23:51:00,61.2,51.0,30.02,WSW,248,0.0,2.2,69,0.00,,,0.00,WUHU216HW,2013-05-12 06:51:00,
2013-05-11 23:56:00,61.2,51.0,30.02,WSW,248,0.0,0.4,69,0.00,,,0.00,WUHU216HW,2013-05-12 06:56:00,